• In Deutschland
  • Länderverzeichnis
  • Für 7 Tage
  • Wassertemperatur
  • Satellitenkarten
  • Wetterkarte
  • Widgets
  • user-avatar
    Anmelden

    Stündliche Wetter Tuttlingen

    Heute, 11 Dezember, Montag

    Zeit Temperatur Niederschläge Wind Luftdruck Luftfeuchtigkeit
    00:00 +1°C° 0,9 mm 3 m/S 684 mmHg 93%
    01:00 +1°C° 0 mm 3 m/S 684 mmHg 92%
    02:00 +1°C° 0,5 mm 3 m/S 683 mmHg 92%
    03:00 +2°C° 0,5 mm 2 m/S 683 mmHg 92%
    04:00 +2°C° 0,5 mm 2 m/S 682 mmHg 92%
    05:00 +2°C° 0,4 mm 2 m/S 682 mmHg 91%
    06:00 +2°C° 0,4 mm 2 m/S 681 mmHg 91%
    07:00 +2°C° 0 mm 2 m/S 680 mmHg 89%
    08:00 +2°C° 0,7 mm 2 m/S 680 mmHg 90%
    09:00 +2°C° 0,7 mm 2 m/S 680 mmHg 91%
    10:00 +2°C° 0,7 mm 2 m/S 679 mmHg 92%
    11:00 +3°C° 0,4 mm 1 m/S 679 mmHg 93%
    12:00 +4°C° 0,4 mm 1 m/S 679 mmHg 93%
    13:00 +4°C° 0,4 mm 1 m/S 679 mmHg 93%
    14:00 +4°C° 0,5 mm 1 m/S 680 mmHg 93%
    15:00 +3°C° 0,5 mm 2 m/S 680 mmHg 92%
    16:00 +3°C° 0,5 mm 2 m/S 681 mmHg 92%
    17:00 +2°C° 0,4 mm 3 m/S 682 mmHg 92%
    18:00 +2°C° 0,4 mm 3 m/S 682 mmHg 91%
    19:00 +1°C° 0,4 mm 4 m/S 683 mmHg 91%
    20:00 +1°C° 0,5 mm 4 m/S 683 mmHg 90%
    21:00 +1°C° 0,5 mm 5 m/S 684 mmHg 89%
    22:00 +1°C° 0,5 mm 5 m/S 684 mmHg 88%
    23:00 +1°C° 0,1 mm 5 m/S 685 mmHg 87%

    Morgen, 12 Dezember, Dienstag

    Zeit Temperatur Niederschläge Wind Luftdruck Luftfeuchtigkeit
    00:00 +1°C° 0,1 mm 5 m/S 686 mmHg 87%
    01:00 +1°C° 0,1 mm 5 m/S 686 mmHg 87%
    02:00 -1°C° 0,1 mm 6 m/S 687 mmHg 86%
    03:00 -2°C° 0,1 mm 6 m/S 688 mmHg 85%
    04:00 -2°C° 0,1 mm 7 m/S 690 mmHg 84%
    05:00 -3°C° 0 mm 7 m/S 691 mmHg 84%
    06:00 -3°C° 0 mm 6 m/S 692 mmHg 84%
    07:00 -3°C° 0 mm 6 m/S 694 mmHg 84%
    08:00 -3°C° 0 mm 6 m/S 695 mmHg 84%
    09:00 -2°C° 0 mm 5 m/S 696 mmHg 84%
    10:00 -2°C° 0 mm 5 m/S 697 mmHg 84%
    11:00 -1°C° 0,1 mm 5 m/S 698 mmHg 83%
    12:00 -1°C° 0,1 mm 4 m/S 699 mmHg 82%
    13:00 -1°C° 0,1 mm 4 m/S 700 mmHg 81%
    14:00 -1°C° 0,1 mm 4 m/S 700 mmHg 83%
    15:00 -1°C° 0,1 mm 3 m/S 701 mmHg 84%
    16:00 -1°C° 0,1 mm 3 m/S 702 mmHg 86%
    17:00 -2°C° 0 mm 3 m/S 702 mmHg 88%
    18:00 -2°C° 0 mm 3 m/S 703 mmHg 90%
    19:00 -4°C° 0 mm 3 m/S 704 mmHg 91%
    20:00 -4°C° 0 mm 3 m/S 704 mmHg 92%
    21:00 -4°C° 0 mm 2 m/S 705 mmHg 92%
    22:00 -4°C° 0 mm 2 m/S 705 mmHg 93%
    23:00 -4°C° 0 mm 2 m/S 706 mmHg 93%

    übermorgen, 13 Dezember, Mittwoch

    Zeit Temperatur Niederschläge Wind Luftdruck Luftfeuchtigkeit
    00:00 -4°C° 0 mm 2 m/S 706 mmHg 93%
    01:00 -5°C° 0 mm 2 m/S 706 mmHg 93%
    02:00 -5°C° 0 mm 2 m/S 706 mmHg 92%
    03:00 -5°C° 0 mm 2 m/S 706 mmHg 91%
    04:00 -5°C° 0 mm 2 m/S 706 mmHg 90%
    05:00 -5°C° 0 mm 2 m/S 706 mmHg 88%
    06:00 -6°C° 0 mm 3 m/S 706 mmHg 86%
    07:00 -6°C° 0 mm 3 m/S 705 mmHg 84%
    08:00 -5°C° 0 mm 3 m/S 705 mmHg 78%
    09:00 -5°C° 0 mm 3 m/S 705 mmHg 72%
    10:00 -4°C° 0 mm 4 m/S 704 mmHg 67%
    11:00 -3°C° 0 mm 4 m/S 703 mmHg 63%
    12:00 -2°C° 0 mm 4 m/S 702 mmHg 59%
    13:00 0°C° 0 mm 4 m/S 701 mmHg 55%
    14:00 0°C° 0,3 mm 4 m/S 701 mmHg 62%
    15:00 -1°C° 0,3 mm 5 m/S 700 mmHg 68%
    16:00 -1°C° 0,3 mm 5 m/S 700 mmHg 75%
    17:00 -1°C° 0,3 mm 5 m/S 700 mmHg 77%
    18:00 0°C° 0,3 mm 5 m/S 700 mmHg 79%
    19:00 0°C° 0,3 mm 5 m/S 700 mmHg 81%
    20:00 0°C° 0,4 mm 5 m/S 699 mmHg 83%
    21:00 0°C° 0,4 mm 4 m/S 699 mmHg 84%
    22:00 0°C° 0,4 mm 4 m/S 698 mmHg 85%
    23:00 0°C° 0,6 mm 4 m/S 697 mmHg 87%

    14 Dezember, Donnerstag

    Zeit Temperatur Niederschläge Wind Luftdruck Luftfeuchtigkeit
    00:00 +1°C° 0,6 mm 5 m/S 697 mmHg 88%
    01:00 +1°C° 0,6 mm 5 m/S 696 mmHg 89%
    02:00 +1°C° 0,4 mm 5 m/S 696 mmHg 89%
    03:00 +2°C° 0,4 mm 6 m/S 695 mmHg 89%
    04:00 +2°C° 0,4 mm 6 m/S 695 mmHg 89%
    05:00 +2°C° 0,3 mm 6 m/S 695 mmHg 90%
    06:00 +2°C° 0,3 mm 6 m/S 695 mmHg 91%
    07:00 +2°C° 0,3 mm 6 m/S 695 mmHg 92%
    08:00 +2°C° 0,2 mm 6 m/S 695 mmHg 90%
    09:00 +2°C° 0,2 mm 6 m/S 695 mmHg 89%
    10:00 +2°C° 0,2 mm 6 m/S 695 mmHg 88%
    11:00 +3°C° 0 mm 7 m/S 694 mmHg 85%
    12:00 +3°C° 0 mm 7 m/S 694 mmHg 81%
    13:00 +2°C° 0 mm 8 m/S 693 mmHg 78%
    14:00 +2°C° 0,2 mm 8 m/S 692 mmHg 79%
    15:00 +2°C° 0,2 mm 8 m/S 692 mmHg 79%
    16:00 +2°C° 0,2 mm 9 m/S 691 mmHg 80%
    17:00 +1°C° 2,4 mm 8 m/S 691 mmHg 82%
    18:00 +2°C° 2,4 mm 7 m/S 691 mmHg 85%
    19:00 +1°C° 2,4 mm 6 m/S 691 mmHg 88%
    20:00 +1°C° 1,7 mm 6 m/S 692 mmHg 88%
    21:00 +1°C° 1,7 mm 5 m/S 692 mmHg 88%
    22:00 0°C° 1,7 mm 5 m/S 692 mmHg 88%
    23:00 0°C° 0,8 mm 5 m/S 692 mmHg 89%

    15 Dezember, Freitag

    Zeit Temperatur Niederschläge Wind Luftdruck Luftfeuchtigkeit
    00:00 0°C° 0,8 mm 5 m/S 692 mmHg 89%
    01:00 -1°C° 0,8 mm 4 m/S 693 mmHg 90%
    02:00 -1°C° 0,4 mm 4 m/S 693 mmHg 90%
    03:00 -1°C° 0,4 mm 4 m/S 693 mmHg 90%
    04:00 -1°C° 0,4 mm 4 m/S 693 mmHg 90%
    05:00 -2°C° 0,1 mm 4 m/S 693 mmHg 90%
    06:00 -2°C° 0,1 mm 4 m/S 693 mmHg 90%
    07:00 -2°C° 0,1 mm 4 m/S 693 mmHg 90%
    08:00 -2°C° 0,1 mm 4 m/S 694 mmHg 88%
    09:00 -2°C° 0,1 mm 4 m/S 694 mmHg 87%
    10:00 -2°C° 0,1 mm 5 m/S 694 mmHg 85%
    11:00 -1°C° 0 mm 5 m/S 694 mmHg 83%
    12:00 -2°C° 0 mm 6 m/S 694 mmHg 81%
    13:00 -1°C° 0 mm 6 m/S 693 mmHg 79%
    14:00 -1°C° 0,1 mm 5 m/S 693 mmHg 81%
    15:00 -1°C° 0,1 mm 5 m/S 693 mmHg 83%
    16:00 -2°C° 0,1 mm 4 m/S 693 mmHg 84%
    17:00 -2°C° 0,4 mm 4 m/S 694 mmHg 86%
    18:00 -2°C° 0,4 mm 4 m/S 694 mmHg 88%
    19:00 -2°C° 0,4 mm 5 m/S 695 mmHg 89%
    20:00 -2°C° 0,6 mm 5 m/S 696 mmHg 89%
    21:00 -2°C° 0,6 mm 5 m/S 696 mmHg 88%
    22:00 -4°C° 0,6 mm 5 m/S 697 mmHg 88%
    23:00 -4°C° 0,2 mm 5 m/S 697 mmHg 89%

    16 Dezember, Samstag

    Zeit Temperatur Niederschläge Wind Luftdruck Luftfeuchtigkeit
    00:00 -4°C° 0,2 mm 5 m/S 698 mmHg 90%
    01:00 -3°C° 0,2 mm 4 m/S 698 mmHg 91%
    02:00 -3°C° 0,3 mm 4 m/S 699 mmHg 91%
    03:00 -3°C° 0,3 mm 4 m/S 699 mmHg 91%
    04:00 -4°C° 0,3 mm 5 m/S 700 mmHg 91%
    05:00 -3°C° 0,2 mm 4 m/S 700 mmHg 91%
    06:00 -3°C° 0,2 mm 4 m/S 701 mmHg 91%
    07:00 -3°C° 0,2 mm 4 m/S 701 mmHg 91%
    08:00 -3°C° 0 mm 4 m/S 702 mmHg 90%
    09:00 -4°C° 0 mm 5 m/S 702 mmHg 88%
    10:00 -4°C° 0 mm 5 m/S 703 mmHg 86%
    11:00 -4°C° 0,1 mm 5 m/S 703 mmHg 86%
    12:00 -2°C° 0,1 mm 5 m/S 703 mmHg 86%
    13:00 -2°C° 0,1 mm 5 m/S 703 mmHg 86%
    14:00 -2°C° 0,2 mm 4 m/S 703 mmHg 87%
    15:00 -2°C° 0,2 mm 4 m/S 703 mmHg 88%
    16:00 -3°C° 0,2 mm 4 m/S 703 mmHg 89%
    17:00 -2°C° 0,1 mm 3 m/S 704 mmHg 90%
    18:00 -2°C° 0,1 mm 3 m/S 704 mmHg 91%
    19:00 -4°C° 0,1 mm 3 m/S 704 mmHg 92%
    20:00 -4°C° 0,1 mm 3 m/S 705 mmHg 92%
    21:00 -4°C° 0,1 mm 3 m/S 705 mmHg 92%
    22:00 -4°C° 0,1 mm 3 m/S 705 mmHg 91%
    23:00 -5°C° 0 mm 3 m/S 705 mmHg 91%
    Mehr zeigen